Flag for U.S.A. Weather past 2 weeks in Cheyenne, Wyoming, U.S.A.

Now
60 °F

Sunny.


Feels Like: 60 °F
Forecast: 41 / 66 °F
Wind: 18 mph from Northwest

Location: Cheyenne Airport

Current Time: Mar 30, 2015 at 11:55:14 AM

Latest Report: Mar 30, 2015 at 10:53 AM


Visibility: 10 mi

Pressure: 30.04 "Hg

Humidity: 19%

Dew point: 17 °F

Location of CheyenneLocation

Historic Weather in Cheyenne — Graph

°F

Cheyenne temperature yesterday

Maximum temperature yesterday: 61 °F (at 2:53 PM)
Minimum temperature yesterday: 37 °F (at 6:53 AM)
Average temperature yesterday: 49 °F

Past Weeks' High & Low Weather Summary

 TemperatureHumidityPressure
High75 °F (Mar 15, 1:53 PM)100% (Mar 17, 5:50 AM)30.37 "Hg (Mar 17, 5:50 AM)
Low21 °F (Mar 26, 2:53 AM)11% (Mar 16, 10:53 AM)29.69 "Hg (Mar 23, 4:53 PM)
Average47 °F44%30.00 "Hg
* Reported Mar 15 9:53 AM — Mar 30 9:53 AM, Cheyenne, Weather by CustomWeather, © 2015

Note: Actual official high and low records may vary slightly from our data, if they occured in-between our weather recording intervals... More about our weather records

Advertising

Cheyenne weather history for previous 24 hours

 ConditionsComfort  
Time TempWeatherWind HumidityBarometerVisibility
9:53 AM
Mon, Mar 30
57 °FSunny.17 mph21%30.05 "Hg10 mi
8:53 AM53 °FSunny.13 mph24%30.06 "Hg10 mi
7:53 AM47 °FSunny.13 mph29%30.05 "Hg10 mi
6:53 AM45 °FClear.15 mph30%30.02 "Hg10 mi
5:53 AM42 °FClear.16 mph33%30.01 "Hg10 mi
4:53 AM36 °FClear.9 mph48%30.02 "Hg10 mi
3:53 AM38 °FClear.8 mph48%30.00 "Hg10 mi
2:53 AM35 °FClear.8 mph61%30.02 "Hg10 mi
1:53 AM38 °FClear.12 mph55%30.02 "Hg10 mi
12:53 AM42 °FClear.10 mph47%30.03 "Hg10 mi
11:53 PM
Sun, Mar 29
45 °FClear.9 mph42%30.05 "Hg10 mi
10:53 PM48 °FClear.14 mph37%30.06 "Hg10 mi
9:53 PM46 °FClear.9 mph40%30.10 "Hg10 mi
8:53 PM47 °FClear.10 mph39%30.11 "Hg10 mi
7:53 PM51 °FSunny.14 mph31%30.09 "Hg10 mi
6:53 PM54 °FSunny.14 mph26%30.08 "Hg10 mi
5:53 PM59 °FSunny.15 mph21%30.04 "Hg10 mi
4:53 PM61 °FSunny.9 mph19%30.01 "Hg10 mi
3:53 PM60 °FSunny.15 mph19%30.01 "Hg10 mi
2:53 PM61 °FSunny.13 mph19%30.04 "Hg10 mi
1:53 PM60 °FSunny.13 mph14%30.06 "Hg10 mi
12:53 PM56 °FSunny.6 mph18%30.09 "Hg10 mi
11:53 AM53 °FSunny.9 mph23%30.12 "Hg10 mi
Weather by CustomWeather, © 2015

See weather overviewHow to use our weather pages